Regional Weather Roundup
Issued by NWS

Home | Current Version | Previous Version | Graphics & Text | Print | Product List | Glossary Off
Versions: 1 2 3 4 5 6 7 8 9 10 11 12 13 14 15 16 17 18 19 20 21 22 23 24 25 26 27 28 29 30 31 32 33 34 35 36 37 38 39 40 41 42 43 44 45 46 47 48 49 50

000
ASUS43 KFSD 251710
RWRSD

WEATHER ROUNDUP FOR SOUTH DAKOTA
NATIONAL WEATHER SERVICE SIOUX FALLS SD
1200 PM CDT TUE JUL 25 2017

NOTE: "FAIR" INDICATES FEW OR NO CLOUDS BELOW 12,000 FEET WITH NO
SIGNIFICANT WEATHER AND/OR OBSTRUCTIONS TO VISIBILITY.


SDZ001>005-009-010-012>017-251800-
NORTHWEST AND NORTH CENTRAL SOUTH DAKOTA

CITY           SKY/WX    TMP DP  RH WIND       PRES   REMARKS
BUFFALO          N/A     78  49  35 NE22G32   29.99R
FAITH            N/A     85  64  49 NE10G18   29.96R
MOBRIDGE       PTSUNNY   80  68  66 NE10      29.87R
$$

SDZ012>016-024>037-041>051-057-063-072>074-251800-
SOUTHWEST AND SOUTH CENTRAL SOUTH DAKOTA

CITY           SKY/WX    TMP DP  RH WIND       PRES   REMARKS
RAPID CTY ARPT CLOUDY    83  55  38 NE12      30.00R
PIERRE         CLOUDY    89  65  44 E17G23    29.86F
CUSTER         CLOUDY    74  51  44 NE25G35   30.12S
ELLSWORTH AFB  CLOUDY    83  54  35 NE8       30.01R
PHILIP         MOSUNNY   88  63  43 NE20G26   29.92R
PINE RIDGE     MOSUNNY   87  62  43 W3        29.96R
SPEARFISH      FAIR      84  52  32 NE14G20   30.06R
WINNER         FAIR      94  65  38 VRB6      29.87F HX  96
$$

SDZ004>011-016>023-039-040-251800-
NORTHEAST SOUTH DAKOTA

CITY           SKY/WX    TMP DP  RH WIND       PRES   REMARKS
ABERDEEN       MOSUNNY   79  71  76 NE12      29.86F
WATERTOWN      SUNNY     82  70  66 CALM      29.90R
BROOKINGS      SUNNY     86  72  62 S14       29.89F
SISSETON         N/A     79  71  76 NE7       29.88R
$$

SDZ017-020-022-023-036>040-048>070-251800-
SOUTHEAST SOUTH DAKOTA

CITY           SKY/WX    TMP DP  RH WIND       PRES   REMARKS
SIOUX FALLS    CLOUDY    86  75  69 S16G23    29.91F HX  95
HURON          SUNNY     88  67  49 VRB5      29.85S
CHAMBERLAIN    SUNNY     93  66  40 S8        29.85S HX  95
MITCHELL       SUNNY     94  67  41 SW10G18   29.85F HX  97
YANKTON        SUNNY     96  67  38 S15G24    29.90S HX 100
$$

ABBREVIATIONS USED IN REMARKS
   TC - TEMPERATURE IN CELSIUS
  WCI - WIND CHILL INDEX
   HX - HEAT INDEX
  VSB - VISIBILITY




USA.gov is the U.S. government's official web portal to all federal, state and local government web resources and services.